SQ5OUZ-8 Weather Reports


time (UTC)temp
F
wind
direction
speed
knots
gust
knots
rain 1hr
in
rain 24hr
in
rain mn
in
humidity
%
barometer
mb
20260905222935 57 0.0 0.0 0.00 0.00 0.00 100 1018.0
20260905221302 57 0.0 0.0 0.00 0.00 0.00 100 1018.0
20260905215648 58 0.0 0.0 0.00 0.00 0.00 98 1018.0
20260905213845 58 0.0 0.0 0.00 0.00 0.00 96 1018.0
20260905212026 58 0.0 0.0 0.00 0.00 0.00 96 1017.0
20260905210214 58 0.0 0.0 0.00 0.00 0.00 95 1017.0
20260905204245 59 0.0 0.0 0.00 0.00 0.00 94 1017.0
20260905202333 59 0.0 0.0 0.00 0.00 0.00 93 1017.0
20260905200426 59 0.0 0.0 0.00 0.00 0.00 100 1017.0
20260905194435 59 0.0 0.0 0.00 0.00 0.00 100 1017.0
20260905192816 59 0.0 0.0 0.00 0.00 0.00 100 1017.0
20260905191137 59 0.0 0.0 0.00 0.00 0.00 100 1017.0
20260905185232 59 0.0 0.0 0.00 0.00 0.00 100 1017.0
20260905183356 60 0.0 0.0 0.00 0.00 0.00 100 1017.0
20260905181538 62 0.0 0.0 0.00 0.00 0.00 84 1017.0
20260905175753 63 0.0 0.0 0.00 0.00 0.00 72 1017.0
20260905174015 63 0.0 0.0 0.00 0.00 0.00 72 1017.0
20260905172053 63 0.0 0.0 0.00 0.00 0.00 71 1016.0
20260905170327 64 0.0 0.0 0.00 0.00 0.00 67 1016.0
20260905164652 64 0.0 0.0 0.00 0.00 0.00 64 1016.0
20260905162833 66 0.0 0.0 0.00 0.00 0.00 59 1016.0
20260905160849 69 0.0 0.0 0.00 0.00 0.00 51 1016.0
20260905155226 77 0.0 0.0 0.00 0.00 0.00 39 1015.0
20260905153411 73 0.0 0.0 0.00 0.00 0.00 43 1015.0
20260905151434 76 0.0 0.0 0.00 0.00 0.00 37 1015.0
20260905145734 73 0.0 0.0 0.00 0.00 0.00 40 1015.0
20260905144019 79 0.0 0.0 0.00 0.00 0.00 32 1015.0
20260905142112 79 0.0 0.0 0.00 0.00 0.00 34 1015.0
20260905140317 79 0.0 0.0 0.00 0.00 0.00 33 1015.0
20260905134434 73 0.0 0.0 0.00 0.00 0.00 38 1015.0
20260905132653 76 0.0 0.0 0.00 0.00 0.00 37 1015.0
20260905130813 81 0.0 0.0 0.00 0.00 0.00 32 1015.0
20260905125105 80 0.0 0.0 0.00 0.00 0.00 37 1015.0
20260905123438 78 0.0 0.0 0.00 0.00 0.00 39 1015.0
20260905121733 79 0.0 0.0 0.00 0.00 0.00 38 1015.0
20260905120044 74 0.0 0.0 0.00 0.00 0.00 47 1015.0
20260905114056 74 0.0 0.0 0.00 0.00 0.00 47 1015.0
20260905112212 76 0.0 0.0 0.00 0.00 0.00 45 1014.0
20260905110226 78 0.0 0.0 0.00 0.00 0.00 41 1014.0
20260905104234 76 0.0 0.0 0.00 0.00 0.00 47 1014.0
20260905102542 76 0.0 0.0 0.00 0.00 0.00 46 1014.0
20260905100941 77 0.0 0.0 0.00 0.00 0.00 46 1014.0
20260905095142 74 0.0 0.0 0.00 0.00 0.00 55 1014.0
20260905093406 69 0.0 0.0 0.00 0.00 0.00 62 1014.0
20260905091529 70 0.0 0.0 0.00 0.00 0.00 65 1014.0
20260905085843 68 0.0 0.0 0.00 0.00 0.00 70 1014.0
20260905084029 70 0.0 0.0 0.00 0.00 0.00 65 1014.0
20260905082158 71 0.0 0.0 0.00 0.00 0.00 66 1014.0
20260905080540 70 0.0 0.0 0.00 0.00 0.00 68 1014.0
20260905074912 69 0.0 0.0 0.00 0.00 0.00 70 1014.0
20260905073013 67 0.0 0.0 0.00 0.00 0.00 81 1014.0
20260905071406 65 0.0 0.0 0.00 0.00 0.00 87 1014.0
20260905065447 64 0.0 0.0 0.00 0.00 0.00 92 1014.0
20260905063708 63 0.0 0.0 0.00 0.00 0.00 97 1013.0
20260905061716 63 0.0 0.0 0.00 0.00 0.00 98 1013.0
20260905060116 63 0.0 0.0 0.00 0.00 0.00 100 1013.0
20260905054307 63 0.0 0.0 0.00 0.00 0.00 100 1013.0
20260905052522 62 0.0 0.0 0.00 0.00 0.00 100 1013.0
20260905050608 62 0.0 0.0 0.00 0.00 0.00 100 1012.0
20260905044813 62 0.0 0.0 0.00 0.00 0.00 100 1012.0
20260905042836 62 0.0 0.0 0.00 0.00 0.00 100 1012.0
20260905040907 62 0.0 0.0 0.00 0.00 0.00 100 1012.0
20260905034916 61 0.0 0.0 0.00 0.00 0.00 100 1011.0
20260905033222 61 0.0 0.0 0.00 0.00 0.00 100 1011.0
20260905031258 62 0.0 0.0 0.00 0.00 0.00 100 1011.0
20260905025505 62 0.0 0.0 0.00 0.00 0.00 100 1011.0
20260905023532 62 0.0 0.0 0.00 0.00 0.00 100 1011.0
20260905021713 62 0.0 0.0 0.00 0.00 0.00 100 1011.0
20260905020104 62 0.0 0.0 0.00 0.00 0.00 100 1010.0
20260905014326 62 0.0 0.0 0.00 0.00 0.00 100 1010.0
20260905012429 62 0.0 0.0 0.00 0.00 0.00 100 1010.0
20260905010740 62 0.0 0.0 0.00 0.00 0.00 100 1010.0
20260905004931 63 0.0 0.0 0.00 0.00 0.00 100 1010.0
20260905003011 63 0.0 0.0 0.00 0.00 0.00 100 1009.0
20260905001016 65 0.0 0.0 0.00 0.00 0.00 100 1009.0
20260904235049 66 0.0 0.0 0.00 0.00 0.00 100 1008.0
20260904233423 66 0.0 0.0 0.00 0.00 0.00 100 1008.0
20260904231816 65 0.0 0.0 0.00 0.00 0.00 100 1008.0
20260904225818 65 0.0 0.0 0.00 0.00 0.00 100 1008.0
20260904223827 65 0.0 0.0 0.00 0.00 0.00 100 1008.0